Location: Newark
(25.6108°S, 54.5803°W)
Time: 16:08:53
(UTC+00:00)

Courier 1B Rocket - Pass Details

Date: 01 November 2020
Orbit: 920 x 1202 km, 28.2° (Epoch: 22 November)

Event Time Altitude Azimuth Distance (km) Brightness Sun altitude
Rises 13:01:39 0° 257° (WSW) 3,807 7.7 55.4°
Reaches altitude 10° 13:04:27 10° 259° (W) 2,809 7.2 56.1°
Maximum altitude 13:11:11 67° 340° (NNW) 1,044 6.2 57.5°
Drops below altitude 10° 13:17:29 10° 62° (ENE) 2,641 7.9 58.9°
Sets 13:20:04 0° 64° (ENE) 3,564 8.4 59.5°
